| time (UTC) | temp F | wind direction | speed MPH | gust MPH | rain 1hr in | rain 24hr in | rain mn in | humidity % | barometer mb |
| 20260831005646 | 85 | 80 | 3.0 | 7.0 | 0.00 | 0.00 | 0.26 | 76 | 1014.2 |
| 20260831005149 | 85 | 70 | 8.0 | 10.0 | 0.00 | 0.00 | 0.26 | 76 | 1014.2 |
| 20260831004646 | 85 | 68 | 5.0 | 11.0 | 0.00 | 0.00 | 0.26 | 75 | 1014.2 |
| 20260831004146 | 85 | 34 | 3.0 | 7.0 | 0.00 | 0.00 | 0.26 | 75 | 1014.2 |
| 20260831003646 | 85 | 62 | 6.0 | 9.0 | 0.00 | 0.00 | 0.26 | 75 | 1014.2 |
| 20260831003146 | 85 | 58 | 6.0 | 7.0 | 0.00 | 0.00 | 0.26 | 76 | 1014.2 |
| 20260831002647 | 85 | 72 | 2.0 | 8.0 | 0.00 | 0.00 | 0.26 | 76 | 1014.2 |
| 20260831002146 | 85 | 73 | 4.0 | 11.0 | 0.00 | 0.00 | 0.26 | 76 | 1014.2 |
| 20260831001647 | 85 | 91 | 3.0 | 11.0 | 0.00 | 0.00 | 0.26 | 76 | 1014.2 |
| 20260831001146 | 85 | 60 | 7.0 | 11.0 | 0.00 | 0.00 | 0.26 | 75 | 1014.2 |
| 20260831000646 | 86 | 65 | 9.0 | 15.0 | 0.00 | 0.00 | 0.26 | 74 | 1014.2 |
| 20260831000146 | 86 | 63 | 10.0 | 14.0 | 0.00 | 0.00 | 0.26 | 72 | 1014.2 |
| 20260830235646 | 86 | 51 | 8.0 | 13.0 | 0.00 | 0.00 | 0.26 | 72 | 1014.2 |
| 20260830235146 | 86 | 49 | 8.0 | 14.0 | 0.00 | 0.00 | 0.26 | 73 | 1014.2 |
| 20260830234647 | 86 | 32 | 5.0 | 11.0 | 0.00 | 0.00 | 0.26 | 74 | 1014.2 |
| 20260830234147 | 86 | 57 | 9.0 | 13.0 | 0.00 | 0.00 | 0.26 | 74 | 1014.2 |
| 20260830233646 | 86 | 67 | 10.0 | 11.0 | 0.00 | 0.00 | 0.26 | 74 | 1014.2 |
| 20260830233148 | 87 | 73 | 5.0 | 10.0 | 0.00 | 0.00 | 0.26 | 74 | 1014.2 |
| 20260830232647 | 87 | 38 | 7.0 | 11.0 | 0.00 | 0.00 | 0.26 | 74 | 1014.2 |
| 20260830232146 | 87 | 45 | 6.0 | 10.0 | 0.00 | 0.00 | 0.26 | 73 | 1014.2 |
| 20260830231646 | 87 | 40 | 4.0 | 11.0 | 0.00 | 0.00 | 0.26 | 74 | 1014.2 |
| 20260830231146 | 87 | 47 | 2.0 | 9.0 | 0.00 | 0.00 | 0.26 | 73 | 1014.2 |
| 20260830230646 | 87 | 62 | 8.0 | 11.0 | 0.00 | 0.00 | 0.26 | 73 | 1014.2 |
| 20260830230146 | 87 | 69 | 11.0 | 15.0 | 0.00 | 0.00 | 0.26 | 73 | 1014.2 |
| 20260830225645 | 87 | 62 | 4.0 | 13.0 | 0.00 | 0.00 | 0.26 | 73 | 1014.2 |
| 20260830225146 | 87 | 22 | 2.0 | 6.0 | 0.00 | 0.00 | 0.26 | 73 | 1014.2 |
| 20260830224646 | 87 | 50 | 3.0 | 11.0 | 0.00 | 0.00 | 0.26 | 73 | 1014.2 |
| 20260830224146 | 87 | 82 | 6.0 | 8.0 | 0.00 | 0.00 | 0.26 | 73 | 1014.2 |
| 20260830223646 | 87 | 68 | 11.0 | 12.0 | 0.00 | 0.00 | 0.26 | 72 | 1014.2 |
| 20260830223146 | 87 | 40 | 5.0 | 10.0 | 0.00 | 0.00 | 0.26 | 71 | 1014.2 |
| 20260830222646 | 87 | 73 | 6.0 | 13.0 | 0.00 | 0.00 | 0.26 | 71 | 1014.2 |
| 20260830222146 | 87 | 66 | 9.0 | 10.0 | 0.00 | 0.00 | 0.26 | 70 | 1014.2 |
| 20260830221646 | 87 | 65 | 3.0 | 11.0 | 0.00 | 0.00 | 0.26 | 69 | 1014.6 |
| 20260830221147 | 87 | 50 | 8.0 | 11.0 | 0.00 | 0.00 | 0.26 | 69 | 1014.2 |
| 20260830220646 | 87 | 51 | 8.0 | 10.0 | 0.00 | 0.00 | 0.26 | 69 | 1014.6 |
| 20260830220146 | 87 | 88 | 7.0 | 12.0 | 0.00 | 0.00 | 0.26 | 69 | 1014.6 |
| 20260830215645 | 87 | 84 | 8.0 | 9.0 | 0.00 | 0.00 | 0.26 | 70 | 1014.6 |
| 20260830215146 | 87 | 69 | 8.0 | 13.0 | 0.00 | 0.00 | 0.26 | 69 | 1014.6 |
| 20260830214647 | 87 | 65 | 6.0 | 11.0 | 0.00 | 0.00 | 0.26 | 69 | 1014.2 |
| 20260830214147 | 87 | 53 | 6.0 | 13.0 | 0.00 | 0.00 | 0.26 | 68 | 1014.6 |
| 20260830213646 | 87 | 64 | 9.0 | 11.0 | 0.00 | 0.00 | 0.26 | 68 | 1014.6 |
| 20260830213148 | 88 | 59 | 11.0 | 11.0 | 0.00 | 0.00 | 0.26 | 66 | 1014.6 |
| 20260830212646 | 88 | 74 | 7.0 | 11.0 | 0.00 | 0.00 | 0.26 | 67 | 1014.6 |
| 20260830212147 | 88 | 84 | 3.0 | 11.0 | 0.00 | 0.00 | 0.26 | 68 | 1014.6 |
| 20260830211646 | 87 | 62 | 5.0 | 9.0 | 0.00 | 0.00 | 0.26 | 68 | 1014.6 |
| 20260830211146 | 87 | 64 | 9.0 | 13.0 | 0.00 | 0.00 | 0.26 | 70 | 1014.6 |
| 20260830210646 | 87 | 91 | 4.0 | 12.0 | 0.00 | 0.00 | 0.26 | 71 | 1014.6 |
| 20260830210148 | 88 | 52 | 5.0 | 10.0 | 0.00 | 0.00 | 0.26 | 70 | 1014.6 |
| 20260830205646 | 87 | 70 | 10.0 | 14.0 | 0.00 | 0.00 | 0.26 | 70 | 1014.6 |
| 20260830205146 | 88 | 70 | 7.0 | 14.0 | 0.00 | 0.00 | 0.26 | 69 | 1014.6 |
| 20260830204646 | 88 | 32 | 5.0 | 12.0 | 0.00 | 0.00 | 0.26 | 70 | 1014.9 |
| 20260830204146 | 87 | 85 | 3.0 | 11.0 | 0.00 | 0.00 | 0.26 | 71 | 1014.6 |
| 20260830203646 | 88 | 40 | 8.0 | 17.0 | 0.00 | 0.00 | 0.26 | 70 | 1014.9 |
| 20260830203146 | 89 | 58 | 3.0 | 9.0 | 0.00 | 0.00 | 0.26 | 67 | 1014.6 |
| 20260830202647 | 89 | 72 | 9.0 | 12.0 | 0.00 | 0.00 | 0.26 | 66 | 1014.6 |
| 20260830202146 | 88 | 63 | 6.0 | 12.0 | 0.00 | 0.00 | 0.26 | 67 | 1014.6 |
| 20260830201646 | 89 | 84 | 5.0 | 7.0 | 0.00 | 0.00 | 0.26 | 66 | 1014.9 |
| 20260830201147 | 88 | 130 | 2.0 | 10.0 | 0.00 | 0.00 | 0.26 | 66 | 1014.9 |
| 20260830200647 | 88 | 85 | 4.0 | 11.0 | 0.00 | 0.00 | 0.26 | 66 | 1015.2 |
| 20260830200147 | 88 | 60 | 8.0 | 15.0 | 0.00 | 0.00 | 0.26 | 66 | 1015.2 |
| 20260830195646 | 88 | 35 | 3.0 | 8.0 | 0.00 | 0.00 | 0.26 | 66 | 1015.2 |
| 20260830195147 | 88 | 114 | 6.0 | 9.0 | 0.00 | 0.00 | 0.26 | 66 | 1015.2 |
| 20260830194646 | 88 | 70 | 6.0 | 8.0 | 0.00 | 0.00 | 0.26 | 66 | 1015.2 |
| 20260830194146 | 89 | 121 | 4.0 | 7.0 | 0.00 | 0.00 | 0.26 | 66 | 1015.2 |
| 20260830193647 | 90 | 10 | 2.0 | 8.0 | 0.00 | 0.00 | 0.26 | 65 | 1015.6 |
| 20260830193148 | 91 | 139 | 6.0 | 11.0 | 0.00 | 0.00 | 0.26 | 63 | 1015.6 |
| 20260830192646 | 91 | 134 | 7.0 | 8.0 | 0.00 | 0.00 | 0.26 | 63 | 1015.6 |
| 20260830192146 | 90 | 64 | 5.0 | 8.0 | 0.00 | 0.00 | 0.26 | 62 | 1015.6 |
| 20260830191646 | 91 | 101 | 4.0 | 11.0 | 0.00 | 0.00 | 0.26 | 63 | 1015.6 |
| 20260830191146 | 90 | 80 | 5.0 | 13.0 | 0.00 | 0.00 | 0.26 | 64 | 1015.6 |
| 20260830190646 | 90 | 52 | 11.0 | 14.0 | 0.00 | 0.00 | 0.26 | 63 | 1015.9 |
| 20260830190147 | 90 | 54 | 7.0 | 13.0 | 0.00 | 0.00 | 0.26 | 62 | 1015.6 |
| 20260830185647 | 90 | 26 | 3.0 | 11.0 | 0.00 | 0.00 | 0.26 | 63 | 1015.9 |
| 20260830185146 | 89 | 56 | 2.0 | 13.0 | 0.00 | 0.00 | 0.26 | 64 | 1015.9 |
| 20260830184646 | 89 | 46 | 9.0 | 15.0 | 0.00 | 0.00 | 0.26 | 64 | 1015.9 |
| 20260830184146 | 89 | 52 | 9.0 | 13.0 | 0.00 | 0.00 | 0.26 | 64 | 1015.9 |
| 20260830183646 | 89 | 50 | 5.0 | 15.0 | 0.00 | 0.00 | 0.26 | 64 | 1015.9 |
| 20260830183146 | 89 | 352 | 3.0 | 16.0 | 0.00 | 0.00 | 0.26 | 64 | 1015.9 |
| 20260830182646 | 89 | 61 | 9.0 | 17.0 | 0.00 | 0.00 | 0.26 | 66 | 1015.9 |
| 20260830182147 | 90 | 60 | 6.0 | 13.0 | 0.00 | 0.00 | 0.26 | 67 | 1015.9 |
| 20260830181646 | 89 | 30 | 7.0 | 10.0 | 0.00 | 0.00 | 0.26 | 69 | 1016.3 |
| 20260830181146 | 89 | 63 | 8.0 | 15.0 | 0.00 | 0.00 | 0.26 | 69 | 1016.3 |
| 20260830180647 | 88 | 50 | 6.0 | 14.0 | 0.00 | 0.00 | 0.26 | 72 | 1016.3 |
| 20260830180146 | 88 | 64 | 11.0 | 16.0 | 0.00 | 0.00 | 0.26 | 71 | 1016.3 |
| 20260830175646 | 88 | 71 | 13.0 | 13.0 | 0.00 | 0.00 | 0.26 | 71 | 1016.6 |
| 20260830175147 | 88 | 72 | 3.0 | 13.0 | 0.00 | 0.00 | 0.26 | 69 | 1016.6 |
| 20260830174646 | 88 | 358 | 2.0 | 15.0 | 0.00 | 0.00 | 0.26 | 67 | 1016.6 |
| 20260830174146 | 88 | 59 | 7.0 | 11.0 | 0.00 | 0.00 | 0.26 | 67 | 1016.6 |
| 20260830173647 | 88 | 29 | 4.0 | 16.0 | 0.00 | 0.00 | 0.26 | 67 | 1016.6 |
| 20260830173146 | 88 | 44 | 7.0 | 18.0 | 0.00 | 0.00 | 0.26 | 66 | 1016.9 |
| 20260830172647 | 88 | 47 | 11.0 | 14.0 | 0.00 | 0.00 | 0.26 | 65 | 1016.9 |
| 20260830172146 | 88 | 44 | 7.0 | 16.0 | 0.00 | 0.00 | 0.26 | 67 | 1016.9 |
| 20260830171646 | 86 | 73 | 8.0 | 13.0 | 0.00 | 0.00 | 0.26 | 73 | 1016.9 |
| 20260830171146 | 85 | 3 | 0.0 | 5.0 | 0.00 | 0.00 | 0.26 | 80 | 1016.9 |
| 20260830170649 | 85 | 332 | 3.0 | 5.0 | 0.00 | 0.00 | 0.26 | 84 | 1016.9 |
| 20260830170146 | 84 | 347 | 5.0 | 6.0 | 0.00 | 0.00 | 0.26 | 86 | 1016.9 |
| 20260830165646 | 84 | 350 | 4.0 | 7.0 | 0.00 | 0.00 | 0.26 | 85 | 1017.3 |
| 20260830165146 | 83 | 34 | 4.0 | 6.0 | 0.00 | 0.00 | 0.26 | 92 | 1016.9 |
| 20260830164646 | 81 | 327 | 5.0 | 5.0 | 0.00 | 0.00 | 0.26 | 92 | 1017.3 |
| 20260830164146 | 80 | 291 | 3.0 | 4.0 | 0.14 | 0.00 | 0.26 | 91 | 1016.9 |
| 20260830163646 | 79 | 320 | 3.0 | 3.0 | 0.78 | 0.00 | 0.26 | 93 | 1017.3 |
| 20260830163146 | 79 | 76 | 3.0 | 6.0 | 1.37 | 0.00 | 0.23 | 91 | 1017.3 |
| 20260830162647 | 83 | 76 | 6.0 | 13.0 | 0.97 | 0.00 | 0.16 | 86 | 1017.3 |
| 20260830162146 | 87 | 55 | 6.0 | 11.0 | 0.00 | 0.00 | 0.00 | 76 | 1017.3 |
| 20260830161646 | 87 | 56 | 2.0 | 9.0 | 0.00 | 0.00 | 0.00 | 76 | 1017.3 |
| 20260830161146 | 87 | 27 | 5.0 | 11.0 | 0.00 | 0.00 | 0.00 | 75 | 1016.9 |
| 20260830160647 | 87 | 21 | 4.0 | 9.0 | 0.00 | 0.00 | 0.00 | 77 | 1016.9 |
| 20260830160146 | 87 | 359 | 7.0 | 9.0 | 0.00 | 0.00 | 0.00 | 78 | 1016.9 |
| 20260830155646 | 86 | 52 | 10.0 | 11.0 | 0.00 | 0.00 | 0.00 | 78 | 1016.9 |
| 20260830155146 | 86 | 41 | 5.0 | 7.0 | 0.00 | 0.00 | 0.00 | 78 | 1016.9 |
| 20260830154647 | 86 | 34 | 5.0 | 10.0 | 0.00 | 0.00 | 0.00 | 79 | 1016.9 |
| 20260830154146 | 87 | 46 | 4.0 | 11.0 | 0.00 | 0.00 | 0.00 | 75 | 1016.9 |
| 20260830153646 | 87 | 36 | 4.0 | 9.0 | 0.00 | 0.00 | 0.00 | 76 | 1016.6 |
| 20260830153147 | 87 | 40 | 4.0 | 11.0 | 0.00 | 0.00 | 0.00 | 78 | 1016.9 |
| 20260830152646 | 86 | 352 | 3.0 | 9.0 | 0.00 | 0.00 | 0.00 | 78 | 1016.6 |
| 20260830152146 | 86 | 351 | 3.0 | 9.0 | 0.00 | 0.00 | 0.00 | 79 | 1016.9 |
| 20260830151647 | 86 | 34 | 3.0 | 6.0 | 0.00 | 0.00 | 0.00 | 80 | 1016.9 |
| 20260830151146 | 86 | 45 | 2.0 | 10.0 | 0.00 | 0.00 | 0.00 | 81 | 1016.9 |
| 20260830150646 | 85 | 360 | 4.0 | 10.0 | 0.00 | 0.00 | 0.00 | 81 | 1016.9 |
| 20260830150146 | 86 | 26 | 3.0 | 12.0 | 0.00 | 0.00 | 0.00 | 81 | 1016.6 |
| 20260830145647 | 86 | 25 | 5.0 | 9.0 | 0.00 | 0.00 | 0.00 | 81 | 1016.9 |
| 20260830145146 | 86 | 18 | 5.0 | 8.0 | 0.00 | 0.00 | 0.00 | 81 | 1016.9 |
| 20260830144647 | 85 | 56 | 6.0 | 9.0 | 0.00 | 0.00 | 0.00 | 80 | 1016.9 |
| 20260830144146 | 86 | 20 | 4.0 | 8.0 | 0.00 | 0.00 | 0.00 | 80 | 1016.6 |
| 20260830143646 | 86 | 35 | 6.0 | 8.0 | 0.00 | 0.00 | 0.00 | 79 | 1016.6 |
| 20260830143146 | 86 | 33 | 5.0 | 10.0 | 0.00 | 0.00 | 0.00 | 80 | 1016.6 |
| 20260830142646 | 85 | 36 | 6.0 | 11.0 | 0.00 | 0.00 | 0.00 | 82 | 1016.6 |
| 20260830142146 | 85 | 72 | 7.0 | 8.0 | 0.00 | 0.00 | 0.00 | 82 | 1016.6 |
| 20260830141646 | 85 | 38 | 8.0 | 9.0 | 0.00 | 0.00 | 0.00 | 83 | 1016.6 |
| 20260830141146 | 85 | 44 | 5.0 | 7.0 | 0.00 | 0.00 | 0.00 | 83 | 1016.6 |
| 20260830140647 | 85 | 28 | 7.0 | 9.0 | 0.00 | 0.00 | 0.00 | 84 | 1016.3 |
| 20260830140147 | 85 | 27 | 5.0 | 8.0 | 0.00 | 0.00 | 0.00 | 83 | 1016.6 |
| 20260830135646 | 85 | 17 | 3.0 | 6.0 | 0.00 | 0.00 | 0.00 | 82 | 1016.6 |
| 20260830135147 | 86 | 25 | 3.0 | 9.0 | 0.00 | 0.00 | 0.00 | 82 | 1016.6 |
| 20260830134647 | 85 | 14 | 3.0 | 7.0 | 0.00 | 0.00 | 0.00 | 81 | 1016.6 |
| 20260830134146 | 85 | 22 | 4.0 | 9.0 | 0.00 | 0.00 | 0.00 | 83 | 1016.6 |
| 20260830133646 | 85 | 37 | 5.0 | 10.0 | 0.00 | 0.00 | 0.00 | 82 | 1016.6 |
| 20260830133146 | 85 | 36 | 5.0 | 9.0 | 0.00 | 0.00 | 0.00 | 83 | 1016.6 |
| 20260830132646 | 84 | 61 | 10.0 | 11.0 | 0.00 | 0.00 | 0.00 | 84 | 1016.6 |
| 20260830132147 | 84 | 51 | 5.0 | 9.0 | 0.00 | 0.00 | 0.00 | 84 | 1016.6 |
| 20260830131646 | 84 | 7 | 4.0 | 9.0 | 0.00 | 0.00 | 0.00 | 84 | 1016.6 |
| 20260830131146 | 84 | 46 | 7.0 | 9.0 | 0.00 | 0.00 | 0.00 | 85 | 1016.3 |
| 20260830130646 | 84 | 27 | 5.0 | 8.0 | 0.00 | 0.00 | 0.00 | 86 | 1016.3 |
| 20260830130146 | 83 | 26 | 1.0 | 6.0 | 0.00 | 0.00 | 0.00 | 88 | 1016.3 |
| 20260830125646 | 83 | 344 | 0.0 | 6.0 | 0.00 | 0.00 | 0.00 | 88 | 1016.3 |
| 20260830125146 | 83 | 10 | 5.0 | 8.0 | 0.00 | 0.00 | 0.00 | 88 | 1016.3 |
| 20260830124647 | 83 | 25 | 5.0 | 8.0 | 0.00 | 0.00 | 0.00 | 88 | 1015.9 |
| 20260830124146 | 83 | 29 | 4.0 | 7.0 | 0.00 | 0.00 | 0.00 | 90 | 1015.9 |
| 20260830123646 | 82 | 49 | 2.0 | 6.0 | 0.00 | 0.00 | 0.00 | 90 | 1016.3 |
| 20260830123147 | 82 | 18 | 3.0 | 7.0 | 0.00 | 0.00 | 0.00 | 90 | 1016.3 |
| 20260830122647 | 82 | 22 | 9.0 | 10.0 | 0.00 | 0.00 | 0.00 | 90 | 1015.9 |
| 20260830122148 | 82 | 10 | 7.0 | 11.0 | 0.00 | 0.00 | 0.00 | 90 | 1015.9 |
| 20260830121646 | 82 | 37 | 7.0 | 8.0 | 0.00 | 0.00 | 0.00 | 91 | 1015.9 |
| 20260830121147 | 82 | 360 | 2.0 | 7.0 | 0.00 | 0.00 | 0.00 | 91 | 1015.9 |
| 20260830120646 | 82 | 343 | 5.0 | 10.0 | 0.00 | 0.00 | 0.00 | 90 | 1015.9 |
| 20260830120147 | 82 | 31 | 6.0 | 7.0 | 0.00 | 0.00 | 0.00 | 89 | 1016.3 |
| 20260830115646 | 82 | 24 | 5.0 | 7.0 | 0.00 | 0.00 | 0.00 | 89 | 1015.9 |
| 20260830115146 | 82 | 34 | 3.0 | 7.0 | 0.00 | 0.00 | 0.00 | 88 | 1015.9 |
| 20260830114646 | 82 | 67 | 2.0 | 6.0 | 0.00 | 0.00 | 0.00 | 87 | 1015.9 |
| 20260830114146 | 82 | 23 | 1.0 | 6.0 | 0.00 | 0.00 | 0.00 | 85 | 1015.9 |
| 20260830113646 | 82 | 58 | 3.0 | 6.0 | 0.00 | 0.00 | 0.00 | 86 | 1015.6 |
| 20260830113146 | 82 | 36 | 4.0 | 6.0 | 0.00 | 0.00 | 0.00 | 86 | 1015.6 |
| 20260830112646 | 82 | 14 | 2.0 | 5.0 | 0.00 | 0.00 | 0.00 | 85 | 1015.6 |
| 20260830112146 | 82 | 32 | 3.0 | 5.0 | 0.00 | 0.00 | 0.00 | 85 | 1015.6 |
| 20260830111647 | 82 | 29 | 0.0 | 5.0 | 0.00 | 0.00 | 0.00 | 85 | 1015.6 |
| 20260830111146 | 82 | 26 | 5.0 | 6.0 | 0.00 | 0.00 | 0.00 | 85 | 1015.6 |
| 20260830110646 | 82 | 356 | 0.0 | 4.0 | 0.00 | 0.00 | 0.00 | 85 | 1015.2 |
| 20260830110146 | 82 | 1 | 1.0 | 5.0 | 0.00 | 0.00 | 0.00 | 85 | 1015.2 |
| 20260830105646 | 82 | 10 | 4.0 | 4.0 | 0.00 | 0.00 | 0.00 | 85 | 1015.2 |
| 20260830105146 | 82 | 6 | 2.0 | 3.0 | 0.00 | 0.00 | 0.00 | 85 | 1014.9 |
| 20260830104646 | 82 | 28 | 2.0 | 3.0 | 0.00 | 0.00 | 0.00 | 85 | 1015.2 |
| 20260830104146 | 82 | 9 | 1.0 | 4.0 | 0.00 | 0.00 | 0.00 | 85 | 1014.9 |
| 20260830103647 | 82 | 18 | 1.0 | 3.0 | 0.00 | 0.00 | 0.00 | 84 | 1014.9 |
| 20260830103147 | 82 | 330 | 1.0 | 3.0 | 0.00 | 0.00 | 0.00 | 84 | 1014.9 |
| 20260830102646 | 82 | 355 | 1.0 | 3.0 | 0.00 | 0.00 | 0.00 | 83 | 1014.9 |
| 20260830102147 | 82 | 20 | 1.0 | 4.0 | 0.00 | 0.00 | 0.00 | 83 | 1014.9 |
| 20260830101647 | 82 | 8 | 2.0 | 4.0 | 0.00 | 0.00 | 0.00 | 83 | 1014.6 |
| 20260830101147 | 83 | 70 | 4.0 | 4.0 | 0.00 | 0.00 | 0.00 | 82 | 1014.6 |
| 20260830100646 | 83 | 21 | 0.0 | 4.0 | 0.00 | 0.00 | 0.00 | 82 | 1014.9 |
| 20260830100146 | 83 | 20 | 2.0 | 3.0 | 0.00 | 0.00 | 0.00 | 81 | 1014.9 |
| 20260830095646 | 83 | 345 | 2.0 | 3.0 | 0.00 | 0.00 | 0.00 | 81 | 1014.6 |
| 20260830095146 | 83 | 309 | 0.0 | 2.0 | 0.00 | 0.00 | 0.00 | 81 | 1014.9 |
| 20260830094646 | 83 | 335 | 0.0 | 3.0 | 0.00 | 0.00 | 0.00 | 81 | 1014.9 |
| 20260830094148 | 83 | 37 | 1.0 | 5.0 | 0.00 | 0.00 | 0.00 | 81 | 1014.9 |
| 20260830093647 | 83 | 37 | 2.0 | 4.0 | 0.00 | 0.00 | 0.00 | 81 | 1014.9 |
| 20260830093146 | 83 | 62 | 2.0 | 5.0 | 0.00 | 0.00 | 0.00 | 83 | 1014.9 |
| 20260830092646 | 83 | 96 | 2.0 | 3.0 | 0.00 | 0.00 | 0.00 | 83 | 1014.6 |
| 20260830092146 | 83 | 82 | 2.0 | 4.0 | 0.00 | 0.00 | 0.00 | 83 | 1014.9 |
| 20260830091646 | 83 | 68 | 3.0 | 7.0 | 0.00 | 0.00 | 0.00 | 83 | 1014.9 |
| 20260830091147 | 83 | 48 | 2.0 | 5.0 | 0.00 | 0.00 | 0.00 | 83 | 1014.9 |
| 20260830090646 | 83 | 57 | 3.0 | 5.0 | 0.00 | 0.00 | 0.00 | 83 | 1014.6 |
| 20260830090146 | 83 | 75 | 0.0 | 5.0 | 0.00 | 0.00 | 0.00 | 84 | 1014.9 |
| 20260830085648 | 83 | 58 | 1.0 | 5.0 | 0.00 | 0.00 | 0.00 | 84 | 1014.6 |
| 20260830085146 | 83 | 69 | 2.0 | 6.0 | 0.00 | 0.00 | 0.00 | 84 | 1014.6 |
| 20260830084648 | 83 | 87 | 2.0 | 6.0 | 0.00 | 0.00 | 0.00 | 84 | 1014.6 |
| 20260830084148 | 83 | 76 | 4.0 | 8.0 | 0.00 | 0.00 | 0.00 | 84 | 1014.9 |
| 20260830083646 | 83 | 62 | 3.0 | 5.0 | 0.00 | 0.00 | 0.00 | 84 | 1014.9 |
| 20260830083146 | 83 | 47 | 2.0 | 5.0 | 0.00 | 0.00 | 0.00 | 84 | 1014.9 |
| 20260830082646 | 83 | 68 | 3.0 | 5.0 | 0.00 | 0.00 | 0.00 | 85 | 1014.9 |
| 20260830082146 | 83 | 32 | 3.0 | 4.0 | 0.00 | 0.00 | 0.00 | 85 | 1014.9 |
| 20260830081646 | 83 | 67 | 2.0 | 5.0 | 0.00 | 0.00 | 0.00 | 85 | 1014.6 |
| 20260830081147 | 83 | 39 | 2.0 | 4.0 | 0.00 | 0.00 | 0.00 | 85 | 1014.9 |
| 20260830080646 | 83 | 58 | 3.0 | 3.0 | 0.00 | 0.00 | 0.00 | 84 | 1014.6 |
| 20260830080146 | 83 | 95 | 2.0 | 3.0 | 0.00 | 0.00 | 0.00 | 84 | 1014.6 |
| 20260830075647 | 83 | 97 | 2.0 | 5.0 | 0.00 | 0.00 | 0.00 | 84 | 1014.9 |
| 20260830075146 | 83 | 57 | 3.0 | 6.0 | 0.00 | 0.00 | 0.00 | 84 | 1014.9 |
| 20260830074646 | 83 | 77 | 3.0 | 5.0 | 0.00 | 0.00 | 0.00 | 83 | 1014.9 |
| 20260830074146 | 83 | 79 | 4.0 | 5.0 | 0.00 | 0.00 | 0.00 | 83 | 1014.9 |
| 20260830073646 | 83 | 56 | 2.0 | 5.0 | 0.00 | 0.00 | 0.00 | 83 | 1015.2 |
| 20260830073146 | 83 | 68 | 1.0 | 4.0 | 0.00 | 0.00 | 0.00 | 82 | 1015.2 |
| 20260830072646 | 83 | 67 | 3.0 | 6.0 | 0.00 | 0.00 | 0.00 | 83 | 1014.9 |
| 20260830072146 | 83 | 77 | 4.0 | 4.0 | 0.00 | 0.00 | 0.00 | 82 | 1014.9 |
| 20260830071647 | 83 | 57 | 3.0 | 4.0 | 0.00 | 0.00 | 0.00 | 82 | 1014.9 |
| 20260830071146 | 84 | 59 | 2.0 | 3.0 | 0.00 | 0.00 | 0.00 | 82 | 1015.2 |
| 20260830070646 | 83 | 67 | 2.0 | 5.0 | 0.00 | 0.00 | 0.00 | 82 | 1015.2 |
| 20260830070146 | 83 | 60 | 2.0 | 5.0 | 0.00 | 0.00 | 0.00 | 82 | 1015.2 |
| 20260830065647 | 83 | 84 | 3.0 | 5.0 | 0.00 | 0.00 | 0.00 | 82 | 1015.2 |
| 20260830065150 | 83 | 44 | 2.0 | 5.0 | 0.00 | 0.00 | 0.00 | 82 | 1015.6 |
| 20260830064647 | 83 | 66 | 3.0 | 3.0 | 0.00 | 0.00 | 0.00 | 83 | 1015.6 |
| 20260830064146 | 83 | 76 | 2.0 | 6.0 | 0.00 | 0.00 | 0.00 | 83 | 1015.6 |
| 20260830063647 | 83 | 35 | 3.0 | 5.0 | 0.00 | 0.00 | 0.00 | 83 | 1015.6 |
| 20260830063146 | 83 | 52 | 0.0 | 3.0 | 0.00 | 0.00 | 0.00 | 83 | 1015.6 |
| 20260830062646 | 83 | 86 | 1.0 | 3.0 | 0.00 | 0.00 | 0.00 | 83 | 1015.6 |
| 20260830062146 | 83 | 70 | 1.0 | 3.0 | 0.00 | 0.00 | 0.00 | 82 | 1015.9 |
| 20260830061646 | 83 | 49 | 3.0 | 3.0 | 0.00 | 0.00 | 0.00 | 82 | 1015.6 |
| 20260830061146 | 83 | 57 | 2.0 | 5.0 | 0.00 | 0.00 | 0.00 | 82 | 1015.6 |
| 20260830060646 | 83 | 62 | 3.0 | 4.0 | 0.00 | 0.00 | 0.00 | 82 | 1015.9 |
| 20260830060146 | 83 | 61 | 3.0 | 5.0 | 0.00 | 0.00 | 0.00 | 82 | 1015.9 |
| 20260830055646 | 83 | 94 | 4.0 | 7.0 | 0.00 | 0.00 | 0.00 | 82 | 1015.9 |
| 20260830055146 | 83 | 55 | 2.0 | 4.0 | 0.00 | 0.00 | 0.00 | 82 | 1015.9 |
| 20260830054646 | 83 | 67 | 6.0 | 7.0 | 0.00 | 0.00 | 0.00 | 82 | 1015.9 |
| 20260830054146 | 83 | 124 | 2.0 | 7.0 | 0.00 | 0.00 | 0.00 | 82 | 1016.3 |
| 20260830053647 | 83 | 143 | 3.0 | 5.0 | 0.00 | 0.00 | 0.00 | 82 | 1016.6 |
| 20260830053146 | 83 | 43 | 1.0 | 4.0 | 0.00 | 0.00 | 0.00 | 82 | 1016.3 |
| 20260830052646 | 83 | 1 | 2.0 | 4.0 | 0.00 | 0.00 | 0.00 | 82 | 1016.3 |
| 20260830052147 | 83 | 129 | 2.0 | 4.0 | 0.00 | 0.00 | 0.00 | 82 | 1016.6 |
| 20260830051647 | 83 | 175 | 2.0 | 4.0 | 0.00 | 0.00 | 0.00 | 82 | 1016.6 |
| 20260830051147 | 83 | 127 | 0.0 | 4.0 | 0.00 | 0.00 | 0.00 | 82 | 1016.6 |
| 20260830050646 | 83 | 50 | 1.0 | 5.0 | 0.00 | 0.00 | 0.00 | 82 | 1016.3 |
| 20260830050146 | 83 | 71 | 5.0 | 7.0 | 0.00 | 0.00 | 0.00 | 82 | 1016.6 |
| 20260830045646 | 83 | 66 | 3.0 | 4.0 | 0.00 | 0.00 | 0.00 | 82 | 1016.3 |
| 20260830045146 | 83 | 208 | 3.0 | 5.0 | 0.00 | 0.00 | 0.00 | 82 | 1016.3 |
| 20260830044646 | 83 | 119 | 2.0 | 5.0 | 0.00 | 0.00 | 0.00 | 82 | 1016.6 |
| 20260830044146 | 83 | 69 | 5.0 | 6.0 | 0.00 | 0.00 | 0.00 | 82 | 1016.6 |
| 20260830043646 | 83 | 55 | 2.0 | 7.0 | 0.00 | 0.00 | 0.00 | 81 | 1016.3 |
| 20260830043147 | 83 | 55 | 4.0 | 6.0 | 0.00 | 0.00 | 0.00 | 81 | 1016.3 |
| 20260830042647 | 84 | 62 | 2.0 | 8.0 | 0.00 | 0.00 | 0.00 | 81 | 1016.3 |
| 20260830042146 | 84 | 96 | 3.0 | 5.0 | 0.00 | 0.00 | 0.00 | 80 | 1016.6 |
| 20260830041647 | 84 | 45 | 4.0 | 7.0 | 0.00 | 0.00 | 0.00 | 80 | 1016.6 |
| 20260830041146 | 84 | 101 | 2.0 | 5.0 | 0.00 | 0.00 | 0.00 | 79 | 1016.6 |
| 20260830040646 | 84 | 56 | 2.0 | 6.0 | 0.00 | 0.00 | 0.00 | 79 | 1016.6 |
| 20260830040147 | 84 | 23 | 2.0 | 6.0 | 0.00 | 0.00 | 0.00 | 79 | 1016.6 |
| 20260830035646 | 84 | 75 | 3.0 | 6.0 | 0.00 | 0.00 | 0.00 | 79 | 1016.9 |
| 20260830035146 | 84 | 50 | 7.0 | 9.0 | 0.00 | 0.00 | 0.00 | 79 | 1016.6 |
| 20260830034647 | 84 | 75 | 3.0 | 5.0 | 0.00 | 0.00 | 0.00 | 80 | 1016.3 |
| 20260830034146 | 84 | 51 | 4.0 | 6.0 | 0.00 | 0.00 | 0.00 | 80 | 1016.3 |
| 20260830033646 | 84 | 151 | 2.0 | 3.0 | 0.00 | 0.00 | 0.00 | 80 | 1015.9 |
| 20260830033147 | 84 | 331 | 1.0 | 5.0 | 0.00 | 0.00 | 0.00 | 80 | 1016.3 |
| 20260830032647 | 84 | 66 | 5.0 | 6.0 | 0.00 | 0.00 | 0.00 | 80 | 1015.9 |
| 20260830032146 | 84 | 142 | 2.0 | 4.0 | 0.00 | 0.00 | 0.00 | 79 | 1015.9 |
| 20260830031647 | 85 | 73 | 2.0 | 3.0 | 0.00 | 0.00 | 0.00 | 78 | 1015.9 |
| 20260830031146 | 85 | 131 | 0.0 | 3.0 | 0.00 | 0.00 | 0.00 | 77 | 1016.3 |
| 20260830030646 | 85 | 99 | 5.0 | 6.0 | 0.00 | 0.00 | 0.00 | 75 | 1016.3 |
| 20260830030147 | 85 | 75 | 3.0 | 9.0 | 0.00 | 0.00 | 0.00 | 74 | 1015.9 |
| 20260830025646 | 85 | 92 | 6.0 | 9.0 | 0.00 | 0.00 | 0.00 | 74 | 1015.9 |
| 20260830025146 | 85 | 57 | 6.0 | 6.0 | 0.00 | 0.00 | 0.00 | 74 | 1015.9 |
| 20260830024646 | 85 | 112 | 3.0 | 4.0 | 0.00 | 0.00 | 0.00 | 76 | 1015.9 |
| 20260830024146 | 85 | 73 | 6.0 | 6.0 | 0.00 | 0.00 | 0.00 | 76 | 1015.9 |
| 20260830023646 | 85 | 175 | 3.0 | 3.0 | 0.00 | 0.00 | 0.00 | 76 | 1015.9 |
| 20260830023146 | 85 | 132 | 3.0 | 5.0 | 0.00 | 0.00 | 0.00 | 76 | 1015.6 |
| 20260830022646 | 85 | 68 | 4.0 | 6.0 | 0.00 | 0.00 | 0.00 | 76 | 1015.6 |
| 20260830022146 | 85 | 51 | 4.0 | 7.0 | 0.00 | 0.00 | 0.00 | 76 | 1015.6 |
| 20260830021646 | 85 | 75 | 3.0 | 6.0 | 0.00 | 0.00 | 0.00 | 76 | 1015.2 |
| 20260830021146 | 85 | 68 | 4.0 | 5.0 | 0.00 | 0.00 | 0.00 | 76 | 1015.2 |
| 20260830020646 | 85 | 87 | 5.0 | 9.0 | 0.00 | 0.00 | 0.00 | 76 | 1015.2 |
| 20260830020146 | 85 | 43 | 2.0 | 9.0 | 0.00 | 0.00 | 0.00 | 76 | 1015.2 |
| 20260830015647 | 85 | 48 | 7.0 | 7.0 | 0.00 | 0.00 | 0.00 | 76 | 1014.9 |
| 20260830015146 | 85 | 71 | 5.0 | 8.0 | 0.00 | 0.00 | 0.00 | 75 | 1015.2 |
| 20260830014646 | 85 | 56 | 8.0 | 9.0 | 0.00 | 0.00 | 0.00 | 75 | 1015.2 |
| 20260830014146 | 86 | 85 | 6.0 | 6.0 | 0.00 | 0.00 | 0.00 | 75 | 1015.2 |
| 20260830013647 | 86 | 68 | 3.0 | 10.0 | 0.00 | 0.00 | 0.00 | 75 | 1014.9 |
| 20260830013146 | 86 | 103 | 3.0 | 8.0 | 0.00 | 0.00 | 0.00 | 75 | 1014.9 |
| 20260830012646 | 86 | 57 | 2.0 | 5.0 | 0.00 | 0.00 | 0.00 | 75 | 1014.9 |
| 20260830012146 | 86 | 79 | 3.0 | 5.0 | 0.00 | 0.00 | 0.00 | 75 | 1014.6 |
| 20260830011646 | 86 | 81 | 1.0 | 7.0 | 0.00 | 0.00 | 0.00 | 74 | 1014.6 |
| 20260830011149 | 87 | 68 | 3.0 | 5.0 | 0.00 | 0.00 | 0.00 | 73 | 1014.2 |
| 20260830010647 | 87 | 20 | 1.0 | 4.0 | 0.00 | 0.00 | 0.00 | 73 | 1014.2 |
| 20260830010146 | 87 | 133 | 2.0 | 7.0 | 0.00 | 0.00 | 0.00 | 73 | 1014.2 |